Weather in Magelang

Indonesia     7°28′21″S   110°13′10″E
temp.,
°C
wind,
m/s
gust,
m/s
humid.,
%
clouds,
%
prec.,
mm/h
press.,
hPa
HPBL,
m
13 may, thu
thu1301:00+20nnw0197100 0.1 101015
04:00+20n119887 0.0 100940
07:00+21nnw019374 0.0 1010112
10:00+27ssw216287 0.0 10101131
13:00+29s325499 0.1 10071361
16:00+24s248496 0.8 1007200
19:00+21se119784 1.4 101014
22:00+21nne119462 0.1 101012
14 may, fri
fri1401:00+20ne1194100 0.1 100912
04:00+20ne119389 0.0 100911
07:00+22se11875 0.0 101092
10:00+28ssw226113 0.0 10091122
13:00+28s3259100 0.1 10061294
16:00+25sse3483100 0.9 1006523
19:00+22sse1298100 1.6 100961
22:00+22wsw1199100 0.2 101041
15 may, sat
sat1501:00+21s009896 0.3 100843
04:00+21ssw019883 0.0 100865
07:00+22ssw019110 0.0 1009162
10:00+28s226121 0.0 10091175
13:00+29s325773 0.1 10061295
16:00+26sse2375100 0.4 1006510
19:00+22sse119783 1.2 100839
22:00+22ne009599 0.3 100926
16 may, sun
sun1601:00+22se119483 0.8 100817
04:00+21e019597 0.2 100816
07:00+22se01916 0.2 1010112
10:00+28s226535 0.1 10091092
13:00+28s326485 0.5 1006713
16:00+25s238312 2.9 1007225
19:00+22s119544 4.3 101029
22:00+21nw119738 0.4 101127
17 may, mon
mon1701:00+21nnw119626 0.8 100918
04:00+20n119830 0.0 100920
07:00+22nnw01915 0.0 1010113
10:00+27ssw117125 1.0 1010826
13:00+27ssw217541 4.5 1008820
16:00+24ssw118645 3.7 1008223
19:00+22ne119562 5.0 101012
22:00+21nne119582 0.1 101113